Newcastle, Australia

1:13 AM AEDT on December 06, 2016 (GMT +1100)
Williamtown Military

Weather History for YWLM - October, 2013

Change the Weather History Date:

Saturday, October 5, 2013

  Actual Average Record
Temperature  
Mean Temperature 63 °F -  
Max Temperature 85 °F - - ()
Min Temperature 41 °F - - ()
Degree Days  
Heating Degree Days 2    
Growing Degree Days 13 (Base 50)    
Moisture  
Dew Point 42 °F    
Average Humidity 63    
Maximum Humidity 100    
Minimum Humidity 5    
Precipitation  
Precipitation 0.00 in - - ()
Sea Level Pressure  
Sea Level Pressure 29.97 in    
Wind  
Wind Speed 5 mph ()    
Max Wind Speed 20 mph    
Max Gust Speed -    
Visibility 5.6 miles    
Events      
T = Trace of Precipitation, MM = Missing Value Source: Averaged Metar Reports

Daily Weather History Graph

Daily Weather History Graph

Search for Another Location

Airport or City:

Trip Planner

Search our weather history database for the weather conditions in past years. The results will help you decide how hot, cold, wet, or windy it might be!

Date:

Astronomy

Oct. 05, 2013 Rise Set
Actual Time 5:25 AM AEST 5:57 PM AEST
Civil Twilight 5:00 AM AEST 6:22 PM AEST
Nautical Twilight 4:31 AM AEST 6:51 PM AEST
Astronomical Twilight 4:01 AM AEST 7:21 PM AEST
Moon 5:12 AM AEST 6:13 PM AEST
Length of Visible Light 13h 21m
Length of Day
12h 32m
New Moon, 0% of the Moon is Illuminated
Oct 5
New Moon
Oct 12
First Quarter
Oct 19
Full
Oct 27
Last Quarter
Nov 3
New

Hourly Weather History & Observations

Time (AEST) Temp. Dew Point Humidity Pressure Visibility Wind Dir Wind Speed Gust Speed Precip Events Conditions
12:00 AM 46 °F 44 °F 92% 30.13 in - Calm Calm - -  
12:00 AM 46.4 °F 44.6 °F 93% 30.12 in 6.2 mi Calm Calm - N/A   Unknown
12:31 AM 46.4 °F 44.6 °F 93% 30.09 in 3.1 mi Calm Calm - N/A   Unknown
12:49 AM 44.6 °F 42.8 °F 93% 30.09 in 6.2 mi Calm Calm - N/A   Unknown
1:00 AM 45 °F 44 °F 94% 30.10 in - Calm Calm - -  
1:00 AM 44.6 °F 44.6 °F 100% 30.09 in 6.2 mi Calm Calm - N/A   Unknown
1:30 AM 44.6 °F 42.8 °F 93% 30.09 in 6.2 mi Calm Calm - N/A   Unknown
2:00 AM 44.6 °F 42.8 °F 93% 30.06 in 6.2 mi Calm Calm - N/A   Unknown
2:30 AM 42.8 °F 41.0 °F 93% 30.06 in 6.2 mi Calm Calm - N/A   Unknown
3:00 AM 43 °F 42 °F 93% 30.06 in 3 mi Calm Calm - -  
3:00 AM 42.8 °F 41.0 °F 93% 30.04 in - Calm Calm - N/A   Unknown
3:24 AM 42.8 °F 42.8 °F 100% 30.04 in 6.2 mi Calm Calm - N/A   Unknown
3:30 AM 42.8 °F 41.0 °F 93% 30.04 in 6.2 mi Calm Calm - N/A   Unknown
4:00 AM 43 °F 41 °F 92% 30.04 in - Calm Calm - -  
4:00 AM 42.8 °F 41.0 °F 93% 30.04 in 6.2 mi Calm Calm - N/A   Unknown
4:26 AM 41.0 °F 41.0 °F 100% 30.04 in 3.1 mi Calm Calm - N/A   Scattered Clouds
4:30 AM 42.8 °F 42.8 °F 100% 30.04 in 0.6 mi Calm Calm - N/A   Scattered Clouds
4:57 AM 41.0 °F 41.0 °F 100% 30.04 in 0.6 mi Calm Calm - N/A   Scattered Clouds
5:00 AM 41.0 °F 41.0 °F 100% 30.04 in 1.4 mi Calm Calm - N/A   Scattered Clouds
5:30 AM 41.0 °F 41.0 °F 100% 30.04 in 1.7 mi Calm Calm - N/A   Unknown
6:00 AM 42 °F 41 °F 93% 30.06 in - Calm Calm - -  
6:00 AM 41.0 °F 41.0 °F 100% 30.04 in 6.2 mi Calm Calm - N/A   Unknown
6:03 AM 41.0 °F 41.0 °F 100% 30.04 in 6.2 mi Calm Calm - N/A   Unknown
6:30 AM 48.2 °F 46.4 °F 93% 30.04 in 6.2 mi NNW 1.2 mph - N/A   Unknown
7:00 AM 53 °F 50 °F 84% 30.06 in - WNW 9.2 mph - -  
7:00 AM 51.8 °F 50.0 °F 94% 30.04 in 6.2 mi WNW 9.2 mph - N/A   Unknown
7:30 AM 53.6 °F 50.0 °F 88% 30.06 in 6.2 mi NW 10.4 mph - N/A   Unknown
8:00 AM 57.2 °F 50.0 °F 77% 30.06 in 6.2 mi WNW 13.8 mph - N/A   Unknown
8:30 AM 60.8 °F 50.0 °F 68% 30.04 in 6.2 mi NW 11.5 mph - N/A   Unknown
9:00 AM 62 °F 48 °F 49% 30.06 in - NW 16.1 mph - -  
9:00 AM 62.6 °F 48.2 °F 59% 30.04 in 6.2 mi NW 16.1 mph - N/A   Unknown
9:30 AM 66.2 °F 46.4 °F 49% 30.04 in 6.2 mi NW 11.5 mph - N/A   Unknown
10:00 AM 69 °F 44 °F 30% 30.03 in - NNW 11.5 mph - -  
10:00 AM 68.0 °F 44.6 °F 43% 30.01 in 6.2 mi NNW 11.5 mph - N/A   Unknown
10:30 AM 71.6 °F 42.8 °F 35% 30.01 in 6.2 mi NNW 10.4 mph - N/A   Unknown
11:00 AM 75.2 °F 42.8 °F 31% 29.98 in 6.2 mi NNW 12.7 mph - N/A   Unknown
11:30 AM 75.2 °F 37.4 °F 25% 29.95 in 6.2 mi WNW 16.1 mph - N/A   Unknown
12:00 PM 78.8 °F 35.6 °F 21% 29.95 in - NW 19.6 mph - N/A   Unknown
12:30 PM 80.6 °F 32.0 °F 17% 29.92 in 6.2 mi WNW 18.4 mph - N/A   Unknown
1:00 PM 82 °F 31 °F 8% 29.91 in - NW 19.6 mph - -  
1:00 PM 82.4 °F 32.0 °F 16% 29.89 in 6.2 mi NW 19.6 mph - N/A   Unknown
1:30 PM 82.4 °F 32.0 °F 16% 29.89 in - WNW 19.6 mph - N/A   Unknown
2:00 PM 84.2 °F 30.2 °F 14% 29.86 in 6.2 mi WNW 16.1 mph - N/A   Unknown
2:30 PM 84.2 °F 32.0 °F 15% 29.86 in 6.2 mi West 15.0 mph - N/A   Unknown
3:00 PM 85 °F 29 °F 6% 29.86 in - WNW 15.0 mph - -  
3:00 PM 84.2 °F 30.2 °F 14% 29.83 in - WNW 15.0 mph - N/A   Unknown
3:30 PM 84.2 °F 24.8 °F 11% 29.83 in 6.2 mi WNW 16.1 mph - N/A   Unknown
4:00 PM 84 °F 25 °F 5% 29.85 in - NW 16.1 mph - -  
4:00 PM 84.2 °F 24.8 °F 11% 29.83 in - NW 16.1 mph - N/A   Unknown
4:30 PM 84.2 °F 26.6 °F 12% 29.83 in - NW 12.7 mph - N/A   Unknown
5:00 PM 80.6 °F 33.8 °F 18% 29.83 in 6.2 mi NW 8.1 mph - N/A   Unknown
5:30 PM 73.4 °F 51.8 °F 47% 29.83 in 6.2 mi NE 8.1 mph - N/A   Unknown
6:00 PM 70 °F 55 °F 50% 29.86 in - NE 8.1 mph - -  
6:00 PM 69.8 °F 55.4 °F 60% 29.86 in 6.2 mi NE 8.1 mph - N/A   Unknown
6:30 PM 68.0 °F 55.4 °F 64% 29.86 in 6.2 mi NE 6.9 mph - N/A   Unknown
7:00 PM 65 °F 56 °F 65% 29.87 in - NNE 4.6 mph - -  
7:00 PM 66.2 °F 55.4 °F 68% 29.86 in 6.2 mi NNE 4.6 mph - N/A   Unknown
7:30 PM 64.4 °F 55.4 °F 73% 29.86 in 6.2 mi NNE 5.8 mph - N/A   Unknown
8:00 PM 60.8 °F 55.4 °F 82% 29.86 in 6.2 mi Calm Calm - N/A   Unknown
8:30 PM 59.0 °F 53.6 °F 82% 29.89 in 6.2 mi ENE 2.3 mph - N/A   Unknown
9:00 PM 58 °F 53 °F 79% 29.90 in - Calm Calm - -  
9:00 PM 59.0 °F 53.6 °F 82% 29.89 in 6.2 mi Calm Calm - N/A   Unknown
9:30 PM 55.4 °F 51.8 °F 88% 29.89 in 6.2 mi West 3.5 mph - N/A   Unknown
10:00 PM 62 °F 39 °F 31% 29.89 in - NW 10.4 mph - -  
10:00 PM 62.6 °F 39.2 °F 42% 29.89 in 6.2 mi NW 10.4 mph - N/A   Unknown
10:30 PM 59.0 °F 39.2 °F 48% 29.89 in 6.2 mi NW 8.1 mph - N/A   Unknown
11:00 PM 60.8 °F 39.2 °F 45% 29.89 in 6.2 mi West 6.9 mph - N/A   Unknown
11:30 PM 60.8 °F 39.2 °F 45% 29.89 in 6.2 mi WNW 10.4 mph - N/A   Unknown